Regional Weather Roundup
Issued by NWS

Current Version | Previous Version | Text Only | Print | Product List | Glossary On
Versions: 1 2 3 4 5 6 7 8 9 10 11 12 13 14 15 16 17 18 19 20 21 22 23 24 25 26 27 28 29 30 31 32 33 34 35 36 37 38 39 40 41 42 43 44 45 46 47 48 49 50
000
ASUS44 KFWD 241515
RWRTX
NORTH TEXAS HOURLY WEATHER ROUNDUP
NATIONAL WEATHER SERVICE FORT WORTH TX
1000 AM CDT FRI MAR 24 2017

NOTE: "FAIR" INDICATES FEW OR NO CLOUDS BELOW 12,000 FEET WITH NO
SIGNIFICANT WEATHER AND/OR OBSTRUCTIONS TO VISIBILITY.

TXZ118-119-241600-
DALLAS/FORT WORTH METROPLEX

CITY           SKY/WX    TMP DP  RH WIND       PRES   REMARKS
DFW AIRPORT    HVY RAIN  60  57  89 SW12      29.91R FOG
DALLAS LOVE    LGT RAIN  61  58  90 W9        29.92R
FTW MEACHAM    LGT RAIN  59  56  89 SE12      29.89F
DAL-EXECUTIVE  CLOUDY    69  62  78 S12G31    29.89R
FTW-ALLIANCE   LGT RAIN  57  56  96 SE6       29.87F
FTW-NAS-JRB    LGT RAIN  59  56  89 S7        29.90S
FTW-SPINKS     RAIN      57  54  88 S8        29.96R
ARLINGTON      LGT RAIN  58  54  86 SW10G18   29.94R
GRAND PRAIRIE  PTSUNNY   59  59 100 S14G25    29.96R
ADDISON        RAIN      61  57  88 W10G28    29.92R
MESQUITE       CLOUDY    68  61  77 SE21G26   29.91S
LANCASTER      CLOUDY    68  60  77 S15G22    29.92R
$$

TXZ091>094-102>105-117-120-121-131>134-241600-
NORTH CENTRAL TEXAS

CITY           SKY/WX    TMP DP  RH WIND       PRES   REMARKS
SHRMAN/DENISON RAIN      63  61  94 S14       29.90R
GAINESVILLE    DRIZZLE   62  57  84 SE10      29.87F
BOWIE          CLOUDY    67  51  56 S13       29.85S
BRIDGEPORT     CLOUDY    60  50  71 SW6       29.89R
DECATUR        MOSUNNY   60  52  73 S13       29.87S
DENTON         LGT RAIN  57  54  89 SE9       29.87F
MCKINNEY       LGT RAIN  65  62  90 S20G26    29.88S
BONHAM         CLOUDY    64  59  82 S18       29.91R
GREENVILLE     CLOUDY    68  59  73 S15G24    29.93S
ROCKWALL       CLOUDY    67  61  79 S15G26    29.90F
TERRELL        CLOUDY    69  59  70 S21G30    29.93R
WAXAHACHIE     LGT RAIN  63  59  87 SW17G25   29.95R
CLEBURNE       RAIN      57  55  94 S7        29.96R
GRANBURY       CLOUDY    59  53  82 SE9       29.92S
$$

TXZ083>090-098>101-113>116-127>130-139>142-154-155-241600-
WESTERN NORTH TEXAS

CITY           SKY/WX    TMP DP  RH WIND       PRES   REMARKS
WICHITA FALLS  CLOUDY    64  37  36 SW14      29.81R
WF-KICKAPOO    CLOUDY    67  33  28 SW13G20   29.83S
VERNON         SUNNY     66  22  18 SW18      29.79S
ABILENE        SUNNY     63  32  31 SW15G23   29.87F
ABILENE-DYESS  SUNNY     67  28  22 W18G25    29.86S
GRAHAM         CLOUDY    69  42  37 S10       29.84F
BRECKENRIDGE   MOSUNNY   69  29  22 SW13      29.87F
CISCO          MOSUNNY   63  37  39 SW13      29.90S
RANGER         CLOUDY    59  52  77 S8        29.90F
MINERAL WELLS  CLOUDY    58  53  84 SE12      29.88R
STEPHENVILLE   CLOUDY    56  50  82 S5        29.94S
COMANCHE       CLOUDY    64  61  87 S8        29.93R
BROWNWOOD      CLOUDY    63  57  82 S6        29.93S
COLEMAN        MOSUNNY   65  38  37 SW13G18   29.93S
$$

TXZ143>147-156>162-174-175-241600-
CENTRAL TEXAS

CITY           SKY/WX    TMP DP  RH WIND       PRES   REMARKS
WACO           LGT RAIN  67  64  90 S16       29.93R FOG
WACO-TSTC      CLOUDY    68  63  83 S14       29.93S
WACO-MCGREGOR  LGT RAIN  67  64  90 S14       29.94R FOG
HILLSBORO      RAIN      56  52  88 W7G21     29.96R
CORSICANA      CLOUDY    71  62  73 S20G36    29.94F
MEXIA          PTSUNNY   70  62  76 SE15G26   29.94F
HEARNE         CLOUDY    70  65  82 SE13G20   29.99R
CAMERON        CLOUDY    70  64  81 S12G20    29.96R
TEMPLE         LGT RAIN  66  64  93 SE15      29.95R
KILLEEN        CLOUDY    67  63  85 SE16      29.92S
KILLEEN-SKYLRK CLOUDY    68  64  88 S14       29.94S
FORT HOOD      CLOUDY    66  63  89 S13       29.91S
GATESVILLE     HVY RAIN  66  61  82 W12       29.96R
HAMILTON       CLOUDY    60  60 100 S6        29.95R
LAMPASAS       LGT RAIN  55  53  91 W3        29.95R
$$

TXZ095>097-106>112-122>126-135>138-148>153-164>167-241600-
EAST TEXAS

CITY           SKY/WX    TMP DP  RH WIND       PRES   REMARKS
PARIS          CLOUDY    70  57  64 S25G35    29.95S
SULPHUR SPRNGS CLOUDY    72  60  66 S17G31    29.96S
MOUNT PLEASANT PTSUNNY   70  60  71 SE16G23   30.00S
GILMER         CLOUDY    69  61  75 SE13G21   30.00F
MINEOLA        MOSUNNY   72  61  68 S12G22    29.96S
TYLER          MOSUNNY   71  62  73 S18G24    29.99F
LONGVIEW       CLOUDY    70  63  78 S13       30.02S
MARSHALL       CLOUDY    70  61  72 S16G22    30.06S
ATHENS         MOSUNNY   70  59  68 S16G26    29.96S
PALESTINE      MOSUNNY   70  64  82 SE8       30.01F
JACKSONVILLE   MOSUNNY   69  64  83 S12       30.05S
HENDERSON      CLOUDY    70  62  75 S10G17    30.04S
CENTER         MOSUNNY   74  67  79 S14G21    30.07F
NACOGDOCHES    CLOUDY    72  63  73 S13G22    30.03S
LUFKIN         LGT RAIN  71  64  78 SE14G25   30.05S
$$

SUPPLEMENTAL OBSERVATIONS (CENTRAL)

CITY           SKY/WX    TMP DP  RH WIND       PRES   REMARKS
DENISON DAM      N/A     64  59  82 SE14        N/A
CADDO GRASSLND   N/A     66  59  77 S10G20      N/A
PAT MAYSE LAKE   N/A     66  59  77 SE24        N/A
GREENVILLE       N/A     70  59  68 S17G26      N/A
CEDAR HILL       N/A     61  57  88 SW6G21      N/A
ATHENS           N/A     72  61  68 S22G28      N/A
MCGREGOR         N/A     66  61  82 S15G23      N/A
TEMPLE           N/A     66  64  94 S10         N/A
$$

SUPPLEMENTAL OBSERVATIONS (WEST)

CITY           SKY/WX    TMP DP  RH WIND       PRES   REMARKS
MILLERS CREEK    N/A     66  32  28 W15G25      N/A
POSSUM KINGDOM   N/A     70  28  21 SW12G23     N/A
LBJ GRASSLAND    N/A     61  54  77 S6          N/A
GRANBURY         N/A     57  52  82 S9          N/A
HAMBY            N/A     66  32  28 SW16        N/A
IVIE RESERVOIR   N/A     68  34  28 W15         N/A
COLORADO BEND    N/A     55  52  88 CALM        N/A
$$

SUPPLEMENTAL OBSERVATIONS (EAST)

CITY           SKY/WX    TMP DP  RH WIND       PRES   REMARKS
CLARKSVILLE      N/A     72  59  64 S22G29      N/A
TEXARKANA        N/A     70  63  78 SE6G15      N/A
LINDEN           N/A    N/A N/A N/A S7G15       N/A
CADDO LAKE       N/A    N/A N/A N/A SE6         N/A
GILMER           N/A     72  63  73 S14         N/A
HENDERSON        N/A     72  63  73 S10         N/A
LUFKIN           N/A     72  63  73 MISG        N/A
N SABINE NF      N/A     72  64  78 MISG        N/A
S SABINE NF      N/A     72  64  78 NW3         N/A
$$

SUPPLEMENTAL OBSERVATIONS ARE A COLLECTION OF AUTOMATED INSTRUMENTS
THAT ARE MAINTAINED BY A VARIETY OF FEDERAL AND STATE AGENCIES.
CERTAIN ELEMENTS...SUCH AS HUMIDITY VALUES AND SUSTAINED WIND
SPEEDS...MAY BE APPROXIMATED.




USA.gov is the U.S. government's official web portal to all federal, state and local government web resources and services.